Theta_e
334 334 336 338 338 338 339 340 342 344 346 345 345 344 345 347 349 352 359 360 364 365 365 367 366 366 365 363 363 363 361 362 360 358 357 357 357 357 355 354 352 354 350 351 352 352 356 358 358 352 354 355 354 356 361 366 366 354 360 371 366 364 367
332 332 333 335 337 337 339 340 343 344 344 344 346 346 348 345 352 353 357 360 365 366 366 366 367 366 364 364 362 364 363 362 362 363 358 361 363 362 357 355 354 355 357 353 355 356 357 353 357 359 354 356 352 355 358 359 362 360 356 366 361 365 365
332 332 333 335 335 336 341 342 344 342 343 347 346 347 348 350 350 355 360 361 366 368 367 367 367 365 366 366 364 363 362 360 361 359 357 354 354 354 355 357 356 353 351 352 362 354 356 354 358 357 356 352 349 355 356 357 358 356 360 366 361 356 364
333 332 332 338 337 341 343 342 342 342 343 344 345 346 347 352 350 359 360 363 366 368 365 367 368 364 364 364 361 362 362 361 360 359 357 355 353 353 354 354 356 354 353 351 351 353 351 353 353 358 360 355 354 354 353 353 353 354 356 363 359 357 363
334 335 335 341 338 342 343 344 342 344 341 341 345 351 349 351 351 357 361 365 368 367 368 368 366 365 364 364 360 361 361 360 360 360 359 357 357 354 352 351 351 352 354 352 354 356 359 357 351 353 355 360 353 353 360 357 353 358 359 360 358 357 357
331 337 339 341 337 337 338 344 343 345 347 345 346 348 349 354 355 356 361 366 369 371 371 368 365 365 362 361 359 360 363 362 362 362 359 357 356 355 353 353 352 351 350 351 352 352 355 351 351 351 351 349 349 347 346 348 350 352 356 357 356 353 352
333 338 339 339 337 339 337 339 341 341 347 354 346 348 350 349 351 354 362 364 369 368 369 367 367 365 363 361 360 362 362 361 361 359 358 356 356 355 353 353 353 352 353 355 352 355 352 352 356 358 353 350 351 347 350 357 353 352 354 356 354 353 354
338 342 341 345 339 336 336 346 343 342 343 353 356 349 354 352 357 357 363 367 369 371 370 367 366 364 365 363 361 360 362 361 360 360 359 355 355 354 355 352 352 351 359 357 360 358 353 355 351 352 352 351 351 352 348 353 357 351 350 351 354 353 349
342 343 340 341 343 342 346 347 349 351 350 351 352 351 358 357 356 358 367 368 370 370 370 368 366 366 363 360 360 359 359 360 359 359 356 354 354 353 354 355 355 361 354 356 355 356 356 354 354 358 356 355 353 356 352 356 350 351 350 352 354 355 352
343 340 344 343 350 348 347 347 357 350 358 359 353 361 356 363 365 362 366 367 370 369 370 368 366 359 356 361 359 358 356 356 357 357 355 353 352 357 359 358 355 362 365 361 358 355 357 355 354 355 361 355 355 353 357 357 354 351 352 353 352 355 358
342 341 340 341 341 346 344 345 347 346 356 354 357 360 359 361 367 368 368 370 370 369 369 364 365 359 358 360 358 356 354 351 351 353 354 354 355 360 363 360 358 360 358 361 360 357 358 356 354 352 351 352 352 354 356 355 355 356 352 351 354 357 355
336 336 343 343 349 346 344 349 359 348 352 353 357 360 362 364 369 369 368 368 371 366 369 364 362 365 362 359 360 358 352 352 353 353 355 358 361 359 362 365 362 360 361 361 360 359 364 358 359 354 353 352 352 354 354 355 355 355 356 353 353 360 358
334 334 349 348 351 350 358 361 355 355 359 357 354 359 365 366 366 367 368 368 367 367 365 362 359 357 358 361 357 356 356 355 354 350 352 355 357 361 359 353 355 356 358 362 363 362 363 359 359 360 357 355 356 353 354 354 353 356 359 360 361 359 355
334 331 350 357 355 353 355 359 359 360 360 358 359 361 365 364 366 367 367 366 366 362 358 354 356 349 346 345 346 350 350 355 353 353 353 355 354 356 354 351 350 351 356 364 361 359 358 357 358 358 357 356 355 356 356 358 358 361 365 365 363 361 356
332 332 342 348 354 357 357 357 360 360 357 358 359 360 360 363 364 360 358 354 357 353 352 352 349 347 346 345 344 347 353 353 355 354 356 356 356 353 352 351 353 355 359 361 359 358 358 359 358 356 355 355 356 357 357 357 358 358 358 359 362 360 358
333 340 339 339 351 356 357 358 359 360 357 355 355 358 359 356 359 357 355 353 350 348 350 352 349 348 345 345 345 349 353 352 353 357 357 358 353 352 354 356 359 360 360 361 362 362 362 362 359 358 357 355 356 355 356 359 356 359 362 364 360 358 358
341 339 334 332 354 354 357 359 359 359 357 357 355 356 358 357 358 359 354 351 350 349 348 349 349 350 348 348 349 352 355 353 352 354 356 357 354 354 356 359 355 358 360 361 361 361 363 361 358 358 358 357 355 356 354 354 354 360 349 349 355 358 358
338 340 338 335 351 356 356 356 357 357 357 358 359 359 360 361 361 360 356 354 352 353 353 351 349 349 349 350 350 355 356 354 355 356 356 357 357 358 359 360 359 359 359 360 358 362 361 359 359 360 359 357 356 355 354 355 359 345 346 350 349 357 356
339 338 337 334 345 354 354 355 356 357 356 358 359 359 359 361 360 358 358 356 356 356 353 350 349 349 352 355 355 357 357 357 357 357 357 357 358 357 358 358 358 358 358 358 360 360 359 358 358 355 355 354 353 353 355 355 356 340 343 343 342 347 353
339 338 337 335 341 354 356 356 356 356 357 358 358 358 361 361 359 358 358 358 357 355 354 352 351 353 354 356 356 356 357 357 357 356 357 358 358 358 358 358 357 358 360 360 360 359 358 358 357 357 357 354 354 353 349 352 351 338 340 340 340 343 352
341 341 338 336 338 353 356 356 357 356 356 357 357 359 359 359 358 358 358 358 356 357 356 356 355 354 353 354 354 355 356 357 357 356 356 357 358 358 357 357 357 358 359 359 358 356 356 356 356 356 356 355 355 354 351 351 344 336 338 335 336 339 350
340 340 339 335 330 346 356 356 355 355 356 358 358 358 358 356 357 356 357 358 357 357 358 356 355 353 353 352 352 352 355 357 356 356 357 357 357 356 356 356 357 357 358 358 358 358 358 358 357 356 356 355 353 353 350 355 337 340 338 337 336 343 352
340 339 337 337 337 337 354 356 355 354 357 356 357 358 357 357 357 356 356 356 356 357 357 356 353 352 351 351 353 354 356 356 356 356 357 357 355 356 355 357 357 358 358 356 356 356 356 356 358 357 356 355 353 350 351 354 342 331 333 334 332 343 354
342 344 344 342 344 344 348 354 354 354 354 354 354 355 359 360 358 358 356 355 356 356 355 355 354 354 353 352 354 355 354 354 356 355 355 356 355 355 356 358 358 357 357 354 354 356 356 359 356 357 355 353 353 352 351 351 348 333 329 327 327 347 351
338 340 344 344 342 345 346 351 354 353 354 354 352 355 358 359 358 356 355 354 353 353 353 354 354 353 353 353 355 355 355 357 357 356 356 355 355 356 356 357 357 358 360 359 357 357 359 355 353 354 352 351 351 354 353 354 347 324 325 325 327 340 351
336 337 341 343 342 343 347 357 355 352 352 352 355 358 358 357 356 356 354 352 353 353 353 354 355 357 357 356 357 357 358 358 357 357 357 356 355 357 360 360 358 358 359 359 358 355 354 354 349 347 349 349 351 353 353 354 352 336 322 323 325 331 347
338 338 340 342 342 346 348 353 351 351 354 356 358 357 357 356 356 355 355 354 352 351 353 355 356 357 358 358 358 359 359 359 359 358 357 357 357 360 359 360 359 359 357 358 359 358 356 355 353 347 347 348 354 357 356 353 347 333 318 319 323 328 339
338 337 336 339 344 347 349 348 351 354 355 358 357 356 356 356 356 355 354 352 351 353 356 357 357 357 357 357 357 356 357 357 359 358 357 359 359 357 357 360 361 355 356 360 357 353 354 354 355 355 357 353 355 351 354 356 352 341 323 319 318 320 331
342 338 337 342 347 348 346 348 350 352 355 355 355 356 356 356 354 353 353 351 352 354 356 355 354 356 357 358 356 356 355 357 355 356 355 355 356 354 354 357 358 356 359 354 351 352 351 350 353 354 354 357 354 358 356 352 349 342 336 321 316 317 321
343 344 344 345 346 346 348 349 350 354 357 354 357 359 357 357 355 354 352 353 356 354 354 355 355 357 355 355 354 354 354 354 353 353 352 352 354 354 354 353 354 354 353 352 353 353 353 355 351 352 350 347 355 352 356 351 347 342 339 329 318 316 316
343 343 343 342 345 350 349 348 349 351 352 353 355 357 360 357 355 355 353 356 359 358 356 356 355 354 353 352 351 351 350 351 350 348 348 348 348 351 351 349 351 352 356 358 352 352 349 350 349 351 351 355 352 352 356 352 350 344 338 332 324 317 314
343 343 343 342 346 351 356 356 354 352 350 351 353 355 360 357 355 356 356 356 359 358 358 355 354 354 353 349 348 346 346 345 344 345 348 346 347 346 348 346 346 347 351 348 347 349 350 351 349 347 349 352 356 354 354 352 354 350 343 340 339 332 321
340 341 344 346 351 354 355 352 350 350 350 349 351 354 354 355 355 356 358 359 354 354 357 356 355 354 352 351 344 345 348 345 342 342 343 344 344 344 343 348 344 342 348 347 342 343 343 345 346 345 344 348 350 352 355 354 351 350 350 351 350 346 340
342 348 352 354 354 353 351 351 350 349 348 350 351 354 352 352 352 354 353 351 351 354 355 356 352 348 347 343 342 345 343 341 342 343 339 339 341 341 339 341 342 342 345 348 343 342 342 341 345 342 340 342 347 351 350 348 340 337 337 337 336 340 342
350 354 355 353 352 352 353 352 349 350 349 350 351 351 352 350 349 351 351 352 355 357 353 350 349 348 344 341 340 344 349 338 340 341 340 342 349 346 344 345 345 350 346 339 340 339 336 337 337 339 337 338 341 340 342 344 338 330 312 317 310 321 329
354 354 355 353 352 352 354 355 354 351 352 353 353 351 353 353 355 353 350 354 356 357 357 357 352 351 344 343 340 339 340 338 338 342 346 339 340 343 339 324 311 320 347 338 321 310 307 315 331 329 336 340 336 333 337 336 330 308 300 298 298 299 300
353 352 349 348 347 350 351 352 354 354 354 354 355 354 353 354 352 356 356 359 358 356 357 355 352 348 351 353 345 344 347 342 341 348 351 349 345 347 345 342 336 303 305 317 314 308 298 297 300 306 310 324 335 319 309 311 303 298 297 297 296 296 296
344 345 346 343 337 335 343 353 354 353 354 353 353 352 352 350 352 357 353 357 357 359 357 354 360 353 349 345 345 352 352 346 349 346 349 355 353 352 350 347 346 344 307 301 307 304 299 298 297 297 299 301 307 327 320 306 300 297 297 296 296 296 295
Wind_Speed
15 15 17 18 14 15 14 13 12 10 9 8 11 14 15 14 11 10 14 14 14 13 13 11 12 11 12 11 10 9 9 9 8 8 7 6 6 6 7 7 8 6 8 8 7 7 5 5 4 8 6 9 8 6 5 4 4 6 4 2 4 3 3
13 13 14 14 16 16 16 17 15 12 10 9 9 12 9 11 8 8 12 14 14 14 14 13 12 12 12 11 11 10 10 10 9 7 8 6 5 5 7 8 7 6 6 6 6 6 5 6 4 3 5 6 9 8 8 7 5 5 5 3 4 3 3
13 13 14 15 16 15 14 14 11 13 16 10 7 9 6 8 9 10 12 15 14 13 14 13 13 13 12 11 10 11 11 11 10 11 11 10 11 11 9 6 6 7 9 8 3 6 6 7 5 6 5 6 9 7 6 6 6 6 5 4 5 6 4
9 9 10 10 14 11 13 15 14 13 12 19 20 16 14 10 9 11 14 15 15 14 15 13 13 13 12 11 9 8 10 11 11 11 11 9 10 9 7 8 6 6 6 9 9 7 7 6 5 3 5 5 5 4 6 7 7 7 7 5 5 6 4
13 11 9 6 11 9 10 12 15 12 13 15 10 8 12 13 14 14 12 14 15 15 14 14 12 12 11 9 6 8 11 13 11 10 9 7 6 8 8 9 9 9 7 9 7 5 4 4 7 6 4 3 5 5 3 6 6 5 6 6 6 6 6
9 9 7 4 10 12 11 10 10 9 8 10 12 11 7 8 1 11 13 13 12 12 12 13 14 12 10 8 8 9 11 11 9 9 9 9 9 9 10 10 9 8 8 9 6 7 5 6 8 6 5 7 9 9 8 7 7 7 7 7 6 7 7
9 6 6 8 10 10 12 13 16 16 12 7 13 12 13 15 16 14 10 12 13 14 13 13 12 10 9 9 10 12 14 13 11 12 11 11 11 10 10 8 9 9 8 6 9 6 7 7 4 2 5 8 6 8 5 4 6 7 6 7 8 7 6
5 5 9 1 8 11 10 6 14 13 12 8 8 12 10 11 7 10 10 10 11 12 11 13 10 10 10 9 9 13 14 14 13 12 10 11 11 9 7 6 7 8 4 6 4 4 7 6 8 7 7 6 6 5 7 4 6 8 7 7 5 8 9
8 6 3 5 6 8 4 2 4 8 10 10 9 8 6 10 11 9 10 10 10 11 11 11 11 8 7 11 12 13 13 13 12 11 12 12 10 10 8 7 5 3 6 6 5 6 5 5 6 4 5 5 5 4 4 3 5 4 6 5 5 5 5
11 5 7 3 3 4 6 5 4 6 5 9 7 6 9 6 6 7 8 9 9 11 11 11 10 9 11 11 12 14 13 12 11 12 11 10 8 6 6 6 7 3 2 3 5 5 5 5 5 7 3 5 5 6 4 3 4 4 5 4 6 4 4
10 3 11 7 8 7 10 9 8 9 6 7 5 6 8 8 7 8 8 8 10 8 11 10 9 12 13 11 11 13 10 11 10 9 9 7 5 4 3 4 4 3 5 3 3 2 4 7 7 7 10 9 7 7 6 6 5 5 6 6 5 5 2
11 7 17 15 7 11 12 7 7 10 8 7 7 6 7 8 7 8 8 8 7 8 9 10 10 9 8 8 9 8 9 8 4 5 10 8 6 3 3 3 3 4 4 5 3 2 4 4 3 3 5 9 9 8 7 6 6 6 5 6 5 4 1
7 9 9 6 7 6 5 7 10 12 10 10 10 6 7 7 7 7 7 7 7 7 6 3 3 5 5 5 8 8 5 5 8 8 6 4 5 4 4 5 8 6 1 3 4 2 1 3 4 4 2 5 7 9 7 7 7 5 4 3 3 2 3
11 14 9 4 6 8 8 8 8 8 9 8 7 6 5 5 5 6 6 4 2 3 6 8 11 13 9 3 7 5 3 4 10 11 10 8 5 2 3 3 2 2 8 1 2 2 3 5 6 5 5 4 4 4 4 5 5 4 2 3 4 3 2
8 12 8 7 9 8 8 9 9 9 10 8 6 6 5 4 3 6 7 5 4 7 11 14 9 7 6 7 6 2 4 5 7 9 7 6 6 7 5 5 5 7 7 3 3 4 5 6 6 7 6 5 4 5 5 3 2 3 3 4 4 3 3
10 4 8 8 8 10 10 10 9 10 12 11 9 9 5 6 5 7 7 6 8 9 6 11 12 11 8 3 5 3 3 4 6 7 7 6 5 5 4 5 5 5 4 3 3 4 4 4 5 5 5 5 5 5 4 3 4 5 8 5 4 4 3
5 6 10 13 6 9 10 10 10 10 11 12 13 12 10 9 8 9 10 9 8 9 9 8 6 7 5 4 5 4 4 4 5 6 6 5 5 5 4 5 4 4 3 3 3 4 3 3 4 4 4 5 5 3 3 5 6 7 7 9 7 5 3
5 7 9 5 8 8 10 10 11 11 11 10 8 9 8 7 6 8 10 10 9 6 6 6 7 7 7 6 5 5 5 5 5 6 6 5 5 5 4 3 4 3 3 4 6 4 2 4 4 3 4 3 3 3 4 4 4 3 4 4 4 4 4
7 6 7 3 12 7 10 10 10 10 11 9 8 7 8 7 7 8 9 8 6 6 7 8 8 8 7 9 9 8 6 6 6 6 7 6 6 5 5 5 5 5 5 6 4 3 4 5 4 4 2 3 4 3 4 7 4 5 6 6 6 5 3
6 8 8 5 13 6 8 9 9 9 9 9 9 9 7 8 9 9 8 7 7 8 7 8 8 7 8 8 7 7 5 5 5 5 6 6 6 5 5 5 6 5 4 3 2 3 3 3 3 2 2 2 1 1 4 4 7 3 5 4 6 6 3
10 10 8 9 13 5 8 9 10 10 10 9 10 9 8 9 10 9 9 8 8 7 8 8 8 7 7 6 6 5 5 4 5 5 6 6 5 5 5 5 4 4 3 2 2 3 3 4 3 2 2 2 3 3 4 3 3 1 1 6 5 1 2
10 10 11 11 7 14 7 10 10 10 10 9 10 9 9 11 10 9 9 8 7 6 7 8 8 8 6 7 6 5 5 6 5 5 5 5 5 5 6 5 5 5 4 4 3 3 3 2 3 3 3 2 1 1 3 3 3 2 3 1 2 1 2
12 11 10 10 11 11 4 8 10 10 9 9 9 9 9 10 11 10 9 8 6 6 6 7 8 7 7 7 6 5 4 3 3 3 4 4 5 5 4 5 4 3 3 2 3 3 4 3 1 0 2 2 1 2 4 2 2 2 2 2 4 2 2
15 15 12 9 7 3 5 4 9 9 10 11 11 11 9 9 10 10 9 7 6 6 6 6 6 6 7 6 5 5 5 4 4 3 3 3 4 4 3 3 2 2 3 3 3 4 2 3 2 1 1 3 3 3 2 3 1 4 3 3 3 3 2
13 11 13 11 8 7 7 7 8 10 10 11 12 9 10 11 10 10 9 7 5 4 5 6 7 6 5 6 6 6 5 5 4 4 4 3 3 2 3 2 2 3 4 4 3 2 1 1 1 1 2 2 3 6 4 3 1 6 5 3 3 3 3
11 11 10 11 10 9 7 5 7 10 10 11 10 10 10 10 10 10 9 7 5 4 4 5 6 6 5 5 6 6 5 4 3 2 2 2 1 2 2 2 1 2 2 1 0 1 1 2 2 3 4 3 4 3 2 1 4 5 8 5 4 4 3
12 11 11 10 8 9 7 7 8 10 10 10 10 10 10 9 10 10 8 6 4 4 5 5 6 5 5 5 5 5 5 4 4 3 2 2 3 1 2 1 1 1 1 1 1 1 3 3 5 8 8 5 5 4 3 4 8 5 5 6 7 5 4
13 13 11 9 8 7 8 8 9 10 11 10 10 10 9 10 9 9 9 8 6 5 5 6 7 7 7 6 5 5 5 5 4 4 4 3 3 3 2 2 1 1 2 1 1 1 2 1 1 1 3 4 1 0 2 8 12 6 5 7 5 3 2
12 14 13 9 9 7 12 8 11 10 11 11 11 10 10 11 10 9 9 9 9 8 6 6 7 7 7 6 6 5 6 5 5 4 4 3 3 2 2 2 1 1 1 1 1 2 1 2 1 2 0 2 3 1 5 6 7 8 6 6 7 7 6
11 15 15 12 12 11 12 11 10 9 8 8 8 8 9 9 9 9 9 10 8 8 7 6 6 6 6 6 6 6 6 5 5 5 4 6 4 3 2 2 1 3 2 1 1 1 1 0 2 2 2 2 1 2 4 7 5 7 8 7 8 9 10
16 16 15 11 10 11 9 11 11 10 10 9 9 8 7 8 10 11 11 9 8 8 8 7 7 6 6 6 5 5 5 4 3 4 4 5 4 3 3 4 2 3 2 1 2 2 2 2 3 3 2 1 2 2 1 6 6 5 6 8 7 7 7
11 14 15 15 11 10 9 9 10 10 11 10 10 10 7 9 11 10 9 9 8 8 7 7 7 6 6 6 7 6 6 5 5 4 3 3 1 4 2 4 3 3 3 3 3 3 3 3 2 2 2 2 2 1 2 4 3 5 5 5 5 4 5
10 12 12 13 12 10 10 11 11 11 11 11 11 10 10 10 10 9 8 8 9 9 7 7 6 5 4 4 5 4 4 3 4 5 3 2 2 3 3 2 1 1 1 4 2 3 3 2 2 2 2 3 3 0 2 1 5 4 3 2 2 4 4
9 9 13 15 13 13 12 11 11 11 11 9 9 9 10 10 10 10 9 9 9 9 7 6 6 7 6 6 5 3 3 3 2 2 1 3 3 3 2 1 2 2 1 3 4 2 2 2 2 3 3 1 2 1 1 4 5 4 4 4 4 4 4
8 10 14 15 13 10 9 10 11 10 12 9 8 8 7 8 9 9 9 7 8 6 6 6 7 5 6 5 5 3 3 4 3 4 4 1 3 6 6 5 4 5 6 5 5 4 3 4 4 5 5 6 5 5 5 4 4 3 3 4 5 5 4
10 13 11 11 10 10 10 9 10 11 10 8 7 7 7 8 7 6 8 9 6 4 4 5 4 3 2 3 4 5 5 3 4 1 4 2 3 5 4 6 9 7 4 4 6 11 9 6 4 3 4 4 5 5 3 2 2 6 6 5 7 7 7
12 10 10 11 10 10 11 9 9 9 9 8 6 7 7 6 8 7 8 5 4 4 3 2 6 4 4 4 6 6 7 7 4 6 4 5 6 3 4 3 6 11 13 10 7 8 10 9 7 8 9 6 3 6 11 11 9 7 5 6 5 5 3
14 4 12 15 18 17 13 6 10 9 9 8 8 8 8 9 8 6 7 5 5 3 3 3 2 3 3 4 5 6 5 3 5 4 4 4 3 3 1 1 3 1 5 6 7 6 6 7 9 10 10 10 8 4 4 6 6 5 5 4 4 3 2
Wind_Direction
194 195 188 186 189 192 184 190 186 173 183 175 185 188 183 172 187 171 163 175 170 170 174 174 176 178 181 184 186 182 191 190 186 196 197 199 198 201 204 203 214 221 210 202 207 228 232 238 217 202 186 185 207 211 217 221 223 232 238 260 294 284 278
196 194 197 194 188 191 181 186 176 173 185 187 189 174 172 164 159 167 162 173 171 173 172 176 178 183 182 186 186 185 192 187 189 186 193 195 196 185 201 212 214 220 239 220 190 203 228 223 236 238 214 197 203 201 199 206 221 229 226 201 242 256 262
204 202 205 195 179 189 169 170 175 180 180 148 201 188 164 168 169 173 171 176 172 173 174 176 182 180 183 184 185 188 190 190 184 191 195 197 200 205 197 211 219 224 219 230 190 204 217 225 209 221 226 215 228 199 189 194 207 220 219 208 222 234 227
202 198 211 193 182 176 166 167 179 197 191 170 181 186 161 165 190 171 182 175 170 174 176 177 176 179 183 186 185 185 192 192 191 192 198 201 201 204 207 200 201 216 229 230 214 201 212 213 223 231 227 241 253 243 196 200 212 209 216 213 223 229 225
190 195 223 196 161 151 169 168 178 185 188 194 183 144 147 165 170 180 182 173 173 175 177 175 177 180 182 181 172 188 191 197 193 193 198 195 199 201 212 222 206 212 222 223 221 192 186 218 219 216 219 244 244 244 225 181 208 198 203 213 221 229 223
176 173 202 222 176 170 178 164 176 179 190 198 153 156 151 124 151 187 175 164 170 170 169 173 176 179 178 173 180 193 189 192 194 194 198 189 200 203 209 211 210 212 230 239 213 225 190 210 222 217 214 218 229 234 230 215 206 213 204 205 220 231 228
174 182 220 196 160 169 188 180 179 183 192 161 173 167 174 171 185 185 170 170 167 171 172 175 178 170 177 181 194 189 188 191 191 198 201 201 197 204 210 210 214 209 209 224 229 214 206 212 233 195 217 233 238 236 244 207 203 204 212 194 203 214 231
155 140 231 89 171 164 174 187 166 179 183 130 156 160 165 157 168 176 166 164 163 164 169 177 170 179 183 185 198 195 191 194 193 198 202 207 201 195 203 226 221 219 224 234 226 237 223 203 213 218 220 215 213 234 243 237 207 213 222 218 210 211 221
64 59 93 114 134 145 154 77 169 159 155 150 168 173 159 160 172 168 155 160 162 165 172 174 173 163 176 185 196 196 196 195 195 195 203 210 204 204 194 208 245 218 210 207 224 213 229 233 224 224 239 239 241 249 267 279 300 257 229 231 226 213 227
66 15 308 148 219 160 150 180 146 134 124 144 157 148 156 160 149 153 159 164 161 172 168 177 173 163 189 196 192 195 194 191 195 197 199 204 207 215 202 180 199 178 85 272 199 208 214 227 266 274 259 236 239 236 263 275 247 273 283 245 233 231 225
63 329 262 196 210 191 159 188 168 166 157 149 154 153 157 158 163 151 156 157 170 165 178 180 179 178 195 185 197 189 190 191 195 192 197 205 228 218 221 222 187 183 155 195 243 276 25 26 14 317 280 252 237 244 248 249 261 259 249 255 260 255 244
65 311 255 176 177 141 166 185 155 164 165 152 162 152 143 154 142 146 155 165 161 169 183 183 190 180 180 174 202 179 189 182 113 29 26 12 356 336 248 240 193 184 147 217 171 167 162 141 168 205 274 282 257 244 244 246 251 258 273 280 273 84 97
76 283 247 147 133 145 125 118 132 151 145 138 152 149 148 154 154 156 157 160 164 180 182 209 113 55 2 357 22 4 331 103 94 109 143 241 315 330 29 16 341 328 119 219 143 161 156 176 187 195 226 270 275 259 244 240 245 250 245 249 257 163 166
60 287 251 154 140 146 140 133 134 132 116 114 127 151 131 141 141 145 151 138 117 29 57 33 46 48 48 47 126 167 183 114 118 132 145 161 189 254 104 109 125 304 292 252 183 203 240 238 232 213 212 228 254 279 280 249 233 235 213 230 235 222 180
116 248 257 199 149 152 152 148 145 140 126 126 125 141 138 92 92 57 51 37 41 50 50 67 80 139 187 192 161 77 30 89 106 108 136 153 143 171 157 167 193 209 208 202 211 220 219 236 243 241 237 236 237 248 249 257 257 236 220 238 227 209 205
182 214 23 305 185 156 152 148 145 140 134 138 157 148 143 148 175 143 138 115 67 83 141 159 170 163 178 131 79 86 135 119 101 112 136 165 157 138 155 184 202 192 195 194 214 217 223 229 237 251 257 258 261 264 267 259 256 256 250 213 225 239 216
155 132 128 282 223 154 140 141 136 138 144 150 155 159 160 153 160 144 128 115 144 162 173 165 135 95 122 139 126 145 145 143 131 138 140 166 148 147 171 193 179 215 204 207 215 223 225 248 243 233 239 251 263 278 283 292 288 296 264 223 218 243 241
142 113 101 282 271 132 134 138 137 139 140 135 133 130 126 127 124 120 123 135 150 162 126 94 97 117 132 136 146 166 159 146 149 150 149 152 152 143 170 176 187 200 215 222 222 202 180 240 244 244 247 256 272 279 272 240 254 321 283 216 195 215 252
131 107 96 73 276 143 140 136 134 135 133 128 128 127 127 128 123 107 111 129 135 118 116 118 130 138 148 151 163 163 155 157 158 155 155 163 160 172 175 186 195 206 212 222 224 199 206 216 224 238 262 305 297 329 331 301 281 214 168 158 156 174 221
108 108 103 91 275 160 135 132 132 132 125 123 125 123 119 121 112 116 120 122 125 124 131 134 137 144 143 144 147 147 149 156 153 159 159 161 162 172 181 184 203 212 208 214 209 233 241 262 253 217 162 206 106 237 264 277 60 315 282 220 184 176 193
75 79 71 57 296 205 143 132 131 128 128 127 123 117 122 117 118 121 120 121 125 138 143 137 135 131 135 127 121 141 145 155 161 159 157 164 170 178 180 185 208 211 213 189 208 229 221 231 218 230 248 213 203 209 254 248 179 215 242 261 271 322 265
123 123 118 116 297 299 146 138 136 136 126 122 122 124 131 129 125 123 119 122 132 148 134 124 123 127 131 135 143 158 163 167 160 156 163 167 177 187 193 195 197 201 175 185 203 205 216 196 221 230 234 226 225 229 267 245 149 327 302 129 146 138 282
129 119 137 143 145 271 251 143 138 127 125 130 130 132 132 134 128 127 130 135 148 144 125 120 125 135 142 145 150 160 153 119 133 172 167 168 185 196 205 194 203 190 127 210 216 213 202 198 127 165 214 215 163 253 239 262 155 165 235 186 145 184 249
135 137 136 142 148 157 286 170 131 140 137 134 135 129 124 125 130 133 130 136 142 134 130 132 124 127 131 131 136 131 121 144 187 192 164 185 187 198 201 174 156 172 170 201 217 227 202 122 116 151 236 242 224 215 249 304 221 168 131 117 193 294 305
114 124 129 133 126 122 231 187 151 139 134 135 127 132 132 133 135 132 133 142 153 151 140 131 127 134 133 133 137 139 143 158 175 160 183 186 184 193 180 183 172 190 188 194 198 203 269 109 135 142 261 252 261 264 233 228 132 104 113 119 46 346 316
127 135 133 118 134 141 219 165 143 144 138 131 131 135 133 133 136 133 136 151 166 160 136 115 120 126 135 145 146 148 161 165 161 139 154 186 164 148 109 120 168 259 226 254 42 328 96 193 135 35 321 305 268 244 225 164 112 121 113 133 117 45 358
131 132 118 123 135 140 178 154 165 143 135 134 138 140 139 136 134 135 129 138 158 167 130 125 123 127 132 137 144 148 151 148 155 162 141 87 81 99 138 135 110 152 204 222 249 196 180 180 162 165 202 230 237 241 210 123 117 111 137 106 84 61 22
137 126 120 114 151 153 145 166 159 139 140 144 145 141 136 135 134 132 136 141 154 154 138 143 144 143 143 145 139 131 131 136 141 123 112 125 126 124 94 83 82 114 103 107 233 288 324 21 208 179 149 149 107 89 72 124 130 130 101 97 99 95 88
140 128 126 143 150 147 143 173 152 149 146 152 146 141 140 138 138 140 139 141 141 142 149 140 128 125 127 127 128 136 130 124 118 111 114 115 126 113 90 92 133 41 359 334 3 320 350 56 24 80 253 150 159 203 106 114 114 120 125 127 124 123 99
141 130 141 149 144 170 174 164 150 147 151 136 136 139 140 142 138 133 131 131 137 135 135 133 124 123 121 126 130 130 129 136 151 147 154 144 143 132 169 162 141 79 35 352 344 343 324 178 345 355 319 306 116 156 114 123 127 143 137 150 163 162 156
142 140 137 138 154 166 161 143 145 143 139 144 143 139 136 135 128 127 126 125 130 133 135 136 137 135 132 129 128 141 139 166 153 139 146 137 150 156 166 124 136 152 203 155 194 204 229 244 229 222 248 199 186 159 181 136 149 148 157 159 179 188 170
136 140 144 156 160 145 119 129 144 149 146 144 139 131 127 129 131 127 126 134 133 137 138 137 142 148 146 151 163 157 140 157 141 121 119 113 165 152 171 161 175 157 172 220 225 215 234 222 244 252 225 224 179 131 129 154 176 135 151 170 184 215 201
162 160 150 136 129 131 132 151 151 148 145 140 140 136 134 133 133 132 135 142 145 138 141 137 144 150 168 163 135 133 134 145 131 144 154 172 204 175 172 236 167 73 304 265 305 28 339 351 316 343 281 329 15 331 148 106 58 95 129 141 194 206 176
170 151 127 122 136 141 153 153 148 149 143 137 135 138 139 139 136 142 149 147 137 133 136 139 155 156 166 146 136 118 132 182 146 57 321 181 153 318 85 227 125 169 195 25 31 354 328 344 24 10 359 112 195 233 48 84 78 48 43 25 13 12 13
145 125 125 135 146 157 146 151 149 137 131 127 131 130 130 134 139 140 130 119 114 131 146 153 158 164 139 134 158 152 212 129 160 164 209 281 76 66 34 17 25 49 77 45 23 25 1 344 358 22 357 351 35 13 1 56 77 67 40 56 59 48 21
125 126 134 142 147 143 139 134 125 132 128 125 132 140 140 132 124 127 127 119 134 152 154 160 174 146 166 160 149 155 193 192 130 91 349 340 138 108 85 46 55 32 45 90 55 59 52 49 55 19 347 16 60 18 18 21 77 107 89 84 71 68 73
140 140 139 134 133 131 124 119 119 116 112 111 104 98 99 100 101 88 87 86 97 104 92 78 48 24 16 38 37 22 31 9 23 81 53 9 20 69 89 76 39 45 48 65 86 76 75 73 72 52 39 26 74 61 54 93 102 107 98 83 78 70 64
354 191 107 73 55 19 4 71 113 110 105 106 107 106 103 102 97 91 107 99 106 109 109 98 92 82 28 51 48 31 22 55 21 46 28 19 14 348 59 152 134 79 48 67 79 95 101 84 59 50 51 50 42 42 128 111 117 122 113 99 78 68 15